TimeGMT,TemperatureF,Dew PointF,Humidity,Sea Level PressureIn,VisibilityMPH,Wind Direction,Wind SpeedMPH,Gust SpeedMPH,PrecipitationIn,Events,Conditions,WindDirDegrees,DateUTC
12:50 AM,37.4,28.4,70,29.30,6.2,SE,29.9,-,N/A,,Partly Cloudy,140,2012-12-14 00:50:00
1:20 AM,37.4,26.6,65,29.27,6.2,SE,29.9,-,N/A,,Partly Cloudy,140,2012-12-14 01:20:00
1:50 AM,37.4,26.6,65,29.27,6.2,SE,28.8,-,N/A,,Unknown,140,2012-12-14 01:50:00
2:20 AM,35.6,23.0,60,29.24,6.2,SE,27.6,-,N/A,,Unknown,130,2012-12-14 02:20:00
2:50 AM,36,24,49,29.24,12,SE,29.9,,,,Mostly Cloudy,130,2012-12-14 02:50:00
2:50 AM,35.6,23.0,60,29.24,6.2,SE,29.9,-,N/A,,Unknown,130,2012-12-14 02:50:00
3:20 AM,37.4,24.8,60,29.21,6.2,SE,29.9,-,N/A,,Unknown,130,2012-12-14 03:20:00
3:50 AM,37.4,23.0,56,29.18,6.2,SE,29.9,-,N/A,,Unknown,140,2012-12-14 03:50:00
4:20 AM,37.4,24.8,60,29.15,6.2,SE,34.5,-,N/A,,Unknown,130,2012-12-14 04:20:00
4:50 AM,35.6,23.0,60,29.12,6.2,ESE,33.4,-,N/A,,Unknown,120,2012-12-14 04:50:00
5:20 AM,37.4,24.8,60,29.12,6.2,SE,32.2,-,N/A,,Unknown,130,2012-12-14 05:20:00
5:50 AM,37.4,26.6,65,29.12,6.2,SE,34.5,-,N/A,,Partly Cloudy,130,2012-12-14 05:50:00
6:20 AM,37.4,24.8,60,29.09,6.2,SE,32.2,-,N/A,,Mostly Cloudy,130,2012-12-14 06:20:00
6:50 AM,37.4,26.6,65,29.06,6.2,ESE,34.5,-,N/A,,Partly Cloudy,120,2012-12-14 06:50:00
7:20 AM,37.4,26.6,65,29.06,6.2,ESE,33.4,-,N/A,,Partly Cloudy,120,2012-12-14 07:20:00
7:50 AM,37.4,26.6,65,29.03,6.2,ESE,35.7,-,N/A,,Scattered Clouds,120,2012-12-14 07:50:00
8:20 AM,37.4,28.4,70,29.00,6.2,ESE,34.5,-,N/A,,Partly Cloudy,120,2012-12-14 08:20:00
8:50 AM,39,30,60,29.01,13,ESE,31.1,,,Rain,Rain,120,2012-12-14 08:50:00
8:50 AM,39.2,30.2,70,29.00,6.2,ESE,32.2,43.7,N/A,,Scattered Clouds,120,2012-12-14 08:50:00
9:20 AM,39.2,30.2,70,29.00,6.2,ESE,32.2,-,N/A,,Mostly Cloudy,120,2012-12-14 09:20:00
9:50 AM,39.2,32.0,75,28.97,6.2,ESE,34.5,-,N/A,Rain,Light Rain,120,2012-12-14 09:50:00
10:20 AM,39.2,32.0,75,28.94,6.2,ESE,32.2,-,N/A,,Mostly Cloudy,120,2012-12-14 10:20:00
10:50 AM,41.0,33.8,76,28.94,6.2,ESE,31.1,-,N/A,,Mostly Cloudy,120,2012-12-14 10:50:00
11:20 AM,39.2,35.6,87,28.91,6.2,ESE,28.8,-,N/A,Rain,Light Rain,120,2012-12-14 11:20:00
11:50 AM,40,36,78,28.92,6,ESE,27.6,,,Snow,Light Snow,120,2012-12-14 11:50:00
11:50 AM,41.0,35.6,81,28.91,6.2,ESE,27.6,-,N/A,Rain,Light Rain,120,2012-12-14 11:50:00
12:20 PM,39.2,35.6,87,28.88,6.2,ESE,28.8,-,N/A,Rain,Light Rain,120,2012-12-14 12:20:00
12:50 PM,39.2,35.6,87,28.85,6.2,ESE,29.9,-,N/A,Rain,Light Rain,120,2012-12-14 12:50:00
1:20 PM,39.2,35.6,87,28.85,6.2,ESE,27.6,-,N/A,Rain,Light Rain,120,2012-12-14 13:20:00
1:50 PM,39.2,35.6,87,28.82,6.2,ESE,28.8,-,N/A,Rain,Light Rain,120,2012-12-14 13:50:00
2:20 PM,41.0,35.6,81,28.82,6.2,ESE,27.6,-,N/A,Rain,Light Rain,120,2012-12-14 14:20:00
2:50 PM,40,36,81,28.81,4,ESE,27.6,,,Rain,Light Rain,120,2012-12-14 14:50:00
2:50 PM,41.0,35.6,81,28.80,5.6,ESE,27.6,-,N/A,Rain,Light Rain,120,2012-12-14 14:50:00
3:20 PM,41.0,37.4,87,28.77,5.6,ESE,27.6,-,N/A,Rain,Light Rain,120,2012-12-14 15:20:00
3:50 PM,41.0,37.4,87,28.77,4.3,ESE,25.3,-,N/A,Rain,Rain,120,2012-12-14 15:50:00
4:20 PM,41.0,37.4,87,28.77,4.3,ESE,26.5,-,N/A,Rain,Light Rain,120,2012-12-14 16:20:00
4:50 PM,41.0,37.4,87,28.74,3.7,ESE,24.2,-,N/A,,Overcast,120,2012-12-14 16:50:00
5:20 PM,41.0,37.4,87,28.74,6.2,ESE,21.9,-,N/A,,Mostly Cloudy,120,2012-12-14 17:20:00
5:50 PM,41,38,85,28.74,3,ESE,21.9,,,,Unknown Precipitation,120,2012-12-14 17:50:00
5:50 PM,41.0,37.4,87,28.74,4.3,ESE,21.9,-,N/A,,Mostly Cloudy,120,2012-12-14 17:50:00
6:20 PM,41.0,39.2,93,28.74,6.2,ESE,17.3,-,N/A,,Scattered Clouds,120,2012-12-14 18:20:00
6:50 PM,42.8,39.2,87,28.71,6.2,ESE,18.4,-,N/A,Rain,Light Rain,120,2012-12-14 18:50:00
7:20 PM,42.8,39.2,87,28.71,6.2,ESE,17.3,-,N/A,Rain,Light Rain,120,2012-12-14 19:20:00
7:50 PM,42.8,39.2,87,28.71,6.2,ESE,13.8,-,N/A,Rain,Light Rain,120,2012-12-14 19:50:00
8:20 PM,42.8,39.2,87,28.71,6.2,ESE,12.7,-,N/A,Rain,Light Rain,120,2012-12-14 20:20:00
8:50 PM,42,39,84,28.72,14,ESE,10.4,,,Rain,Light Rain,110,2012-12-14 20:50:00
8:50 PM,41.0,39.2,93,28.71,6.2,ESE,10.4,-,N/A,Rain,Light Rain,110,2012-12-14 20:50:00
9:20 PM,41.0,39.2,93,28.71,6.2,East,8.1,-,N/A,Rain,Light Rain,100,2012-12-14 21:20:00
9:50 PM,41.0,39.2,93,28.71,6.2,ESE,8.1,-,N/A,Rain,Light Rain,120,2012-12-14 21:50:00
10:20 PM,41.0,39.2,93,28.71,4.3,ESE,6.9,-,N/A,Rain,Light Rain,120,2012-12-14 22:20:00
10:50 PM,41.0,39.2,93,28.71,3.1,ESE,4.6,-,N/A,Rain,Light Rain,120,2012-12-14 22:50:00
11:20 PM,41.0,39.2,93,28.71,3.1,Calm,Calm,-,N/A,Rain,Light Rain,0,2012-12-14 23:20:00
11:50 PM,41.0,39.2,93,28.71,3.7,NNE,1.2,-,N/A,Rain,Light Rain,20,2012-12-14 23:50:00